Location: Alafon
(8.4500°N, 4.2333°E)
Time: 00:04:16
(UTC+00:00)

deb Explorer IX - Pass Details

Date: 01 August 2021
Orbit: 545 x 1091 km, 38.8° (Epoch: 19 September)

Event Time Altitude Azimuth Distance (km) Brightness Sun altitude
Rises 08:23:55 0° 203° (SSW) 2,710 ? 39.2°
Reaches altitude 10° 08:26:39 10° 185° (S) 1,799 ? 39.9°
Maximum altitude 08:29:38 20° 138° (SE) 1,306 ? 40.6°
Drops below altitude 10° 08:32:45 10° 90° (E) 1,858 ? 41.3°
Sets 08:35:28 0° 73° (ENE) 2,777 ? 42.0°
